Terminal Aerodrome Forecast
Issued by NWS

Home | Current Version | Previous Version | Text Only | Print | Product List | Glossary On
Versions: 1 2 3 4 5 6 7 8 9 10 11 12 13 14 15 16 17 18 19 20 21 22 23 24 25 26 27 28 29 30 31 32 33 34 35 36 37 38 39 40 41 42 43 44 45 46 47 48 49 50
000
FTUS43 KMKX 291003 AAA
TAFENW
TAF AMD
KENW 291003Z 2910/3006 03004KT P6SM BKN025 OVC080
     FM291300 29006KT 5SM -FZDZ BR OVC008
     FM291600 31011KT 5SM BR OVC008
     FM292100 32017G26KT P6SM OVC035=

USA.gov is the U.S. government's official web portal to all federal, state and local government web resources and services.